Flag for U.S.A. Weather past 2 weeks in Freehold, New Jersey, U.S.A.

Now
82 °F

Passing clouds.


Feels Like: 83 °F
Forecast: 64 / 84 °F
Wind: 5 mph from West

Location: Belmar-Farmdale

Current Time: Jul 5, 2015 at 2:24:50 PM

Latest Report: Jul 5, 2015 at 1:55 PM


Visibility: 10 mi

Pressure: 30.13 "Hg

Humidity: 51%

Dew point: 63 °F

Location of FreeholdLocation

Historic Weather in Freehold — Graph

°F

Freehold temperature yesterday

Maximum temperature yesterday: 77 °F (at 12:15 PM)
Minimum temperature yesterday: 68 °F (at 12:15 AM)
Average temperature yesterday: 71 °F

Past Weeks' High & Low Weather Summary

 TemperatureHumidityPressure
High91 °F (Jun 23, 2:55 PM)94% (Jun 21, 6:15 AM)30.15 "Hg (Jun 21, 6:15 AM)
Low61 °F (Jun 25, 3:35 AM)37% (Jun 24, 4:15 PM)29.63 "Hg (Jun 28, 4:55 AM)
Average73 °F66%29.92 "Hg
* Reported Jun 20 1:15 PM — Jul 5 1:35 PM, Freehold, Weather by CustomWeather, © 2015

Note: Actual official high and low records may vary slightly from our data, if they occured in-between our weather recording intervals... More about our weather records

Advertising

Freehold weather history for previous 24 hours

 ConditionsComfort  
Time TempWeatherWind HumidityBarometerVisibility
1:35 PM
Sun, Jul 5
81 °FPartly sunny.6 mph54%30.13 "Hg10 mi
1:15 PM81 °FScattered clouds.5 mph54%30.14 "Hg10 mi
12:55 PM81 °FPassing clouds.6 mph54%30.14 "Hg10 mi
12:35 PM79 °FPartly sunny.5 mph58%30.14 "Hg10 mi
12:15 PM81 °FPartly sunny.3 mph54%30.14 "Hg10 mi
11:55 AM79 °FScattered clouds.3 mph54%30.14 "Hg10 mi
11:35 AM79 °FScattered clouds.8 mph54%30.14 "Hg10 mi
11:15 AM79 °FScattered clouds.6 mph54%30.14 "Hg10 mi
10:55 AM75 °FScattered clouds.7 mph61%30.15 "Hg10 mi
10:35 AM77 °FScattered clouds.5 mph57%30.15 "Hg10 mi
10:15 AM75 °FSunny.6 mph61%30.14 "Hg10 mi
9:55 AM75 °FPassing clouds.5 mph61%30.14 "Hg10 mi
9:35 AM75 °FPassing clouds.5 mph61%30.14 "Hg10 mi
8:55 AM73 °FSunny.8 mph65%30.14 "Hg10 mi
8:35 AM72 °FSunny.6 mph69%30.13 "Hg10 mi
8:15 AM72 °FSunny.5 mph65%30.13 "Hg10 mi
7:55 AM70 °FSunny.3 mph69%30.12 "Hg10 mi
7:35 AM70 °FSunny.3 mph64%30.11 "Hg10 mi
7:15 AM68 °FSunny.3 mph69%30.10 "Hg10 mi
6:55 AM66 °FSunny.No wind73%30.10 "Hg10 mi
6:35 AM66 °FSunny.No wind73%30.09 "Hg10 mi
6:15 AM66 °FClear.No wind73%30.08 "Hg10 mi
5:55 AM66 °FClear.No wind73%30.08 "Hg10 mi
5:35 AM66 °FPassing clouds.3 mph73%30.08 "Hg10 mi
5:15 AM66 °FOvercast.3 mph73%30.07 "Hg10 mi
4:55 AM66 °FOvercast.3 mph68%30.07 "Hg10 mi
4:35 AM68 °FOvercast.3 mph64%30.06 "Hg10 mi
4:15 AM68 °FOvercast.3 mph64%30.06 "Hg10 mi
3:55 AM68 °FOvercast.No wind69%30.05 "Hg10 mi
3:35 AM70 °FOvercast.No wind64%30.05 "Hg10 mi
3:15 AM68 °FOvercast.No wind64%30.05 "Hg10 mi
2:55 AM68 °FMostly cloudy.No wind69%30.04 "Hg10 mi
2:35 AM70 °FMostly cloudy.No wind64%30.05 "Hg10 mi
2:15 AM68 °FOvercast.No wind69%30.05 "Hg10 mi
1:55 AM70 °FOvercast.No wind64%30.05 "Hg10 mi
1:35 AM68 °FOvercast.No wind69%30.05 "Hg10 mi
1:15 AM68 °FMostly cloudy.No wind69%30.05 "Hg10 mi
12:55 AM66 °FOvercast.3 mph73%30.05 "Hg10 mi
11:55 PM
Sat, Jul 4
70 °FOvercast.No wind64%30.03 "Hg10 mi
11:35 PM70 °FOvercast.No wind60%30.02 "Hg10 mi
11:15 PM70 °FMostly cloudy.No wind60%30.02 "Hg10 mi
10:55 PM70 °FOvercast.No wind60%30.01 "Hg10 mi
10:35 PM70 °FPassing clouds.No wind60%30.01 "Hg10 mi
10:15 PM70 °FPassing clouds.3 mph60%30.01 "Hg10 mi
9:55 PM70 °FOvercast.3 mph57%30.00 "Hg10 mi
9:35 PM70 °FOvercast.6 mph60%30.00 "Hg10 mi
9:15 PM70 °FMostly cloudy.No wind60%30.00 "Hg10 mi
8:55 PM70 °FMore clouds than sun.No wind57%29.99 "Hg10 mi
8:35 PM72 °FPartly sunny.No wind53%29.99 "Hg10 mi
8:15 PM72 °FPartly sunny.No wind50%29.98 "Hg10 mi
7:55 PM72 °FOvercast.No wind50%29.97 "Hg10 mi
7:35 PM72 °FOvercast.3 mph53%29.97 "Hg10 mi
7:15 PM72 °FMore clouds than sun.3 mph53%29.97 "Hg10 mi
6:55 PM72 °FOvercast.5 mph53%29.96 "Hg10 mi
6:35 PM72 °FOvercast.6 mph53%29.95 "Hg10 mi
6:15 PM72 °FOvercast.6 mph53%29.95 "Hg10 mi
5:55 PM73 °FOvercast.7 mph53%29.95 "Hg10 mi
5:35 PM73 °FOvercast.6 mph53%29.95 "Hg10 mi
5:15 PM73 °FPartly sunny.7 mph53%29.95 "Hg10 mi
4:55 PM73 °FPassing clouds.9 mph50%29.94 "Hg10 mi
4:35 PM73 °FScattered clouds.8 mph50%29.94 "Hg10 mi
4:15 PM72 °FScattered clouds.9 mph53%29.94 "Hg10 mi
3:55 PM72 °FSunny.10 mph53%29.94 "Hg10 mi
3:35 PM72 °FScattered clouds.14 mph57%29.94 "Hg10 mi
3:15 PM72 °FBroken clouds.7 mph61%29.95 "Hg10 mi
2:55 PM72 °FBroken clouds.8 mph61%29.94 "Hg10 mi
2:35 PM72 °FMore clouds than sun.9 mph61%29.94 "Hg10 mi
2:15 PM73 °FOvercast.7 mph50%29.94 "Hg10 mi
Weather by CustomWeather, © 2015

See weather overviewHow to use our weather pages